Weather in Zhilino

Russia / Kaliningrad Oblast     54°54′21″N   21°55′41″E
temp.,
°C
wind,
m/s
gust,
m/s
humid.,
%
clouds,
%
prec.,
mm/h
press.,
hPa
HPBL,
m
20 june, sun
sun2023:00+21sse377912 0.0 1017124
02:00+19sse399015 0.0 1017157
05:00+19sse38905 0.0 1016154
08:00+23sse47745 0.0 1016368
11:00+27s57610 0.0 10171289
14:00+28s58569 0.0 10151867
17:00+28se57650 0.0 10141240
20:00+24ese34830 1.3 101351
21 june, mon
mon2123:00+20se410920 0.3 1013186
02:00+19sse35930 0.4 101399
05:00+19se37953 0.0 1013148
08:00+24sse47800 0.0 1013383
11:00+27se57600 0.0 10131094
14:00+29se68525 0.0 10121487
17:00+28se47590 0.0 10111783
20:00+24ese5107995 0.4 1010310
22 june, tue
tue2223:00+20se410862 0.0 1010232
02:00+19se37940 0.0 1010139
05:00+19se38933 0.0 1010175
08:00+24sse46772 0.1 1010447
11:00+26s577511 3.4 1011977
14:00+25wsw4579100 5.7 1011801
17:00+20wnw4689100 1.3 1013291
20:00+19wnw2485100 1.3 1014239
23 june, wed
wed2323:00+15wnw3592100 0.2 1015132
02:00+14nnw229033 0.2 101537
05:00+14nnw23850 0.0 101547
08:00+19nnw11680 0.0 1016262
11:00+25nnw11655 0.0 1015563
14:00+27wnw11615 0.0 1015989
17:00+28n126212 0.0 10151074
20:00+22nnw338795 0.6 101565
24 june, thu
thu2423:00+20n3390100 1.8 101537
02:00+20se3495100 2.8 101465
05:00+19ssw35958 0.3 1015104
08:00+22sw348828 0.3 1015393
11:00+24sw447791 0.0 1016798
14:00+26w44628 0.0 10171278
17:00+22wnw557367 0.0 1017601
20:00+19nw47820 0.0 1017300